N8AWB Weather Reports


time (UTC)temp
F
wind
direction
speed
knots
gust
knots
rain 1hr
in
rain 24hr
in
rain mn
in
humidity
%
barometer
mb
20260503012536 47 222 0.0 0.0 0.00 0.00 0.00 72 1016.6
20260503012020 47 222 0.0 0.0 0.00 0.00 0.00 71 1016.7
20260503011519 47 222 0.0 0.0 0.00 0.00 0.00 70 1016.7
20260503011027 48 222 0.0 0.0 0.00 0.00 0.00 72 1016.7
20260503010526 48 222 0.0 0.0 0.00 0.00 0.00 71 1016.6
20260503010014 48 222 0.0 0.0 0.00 0.00 0.00 69 1016.5
20260503005532 49 223 0.0 0.0 0.00 0.00 0.00 69 1016.4
20260503005021 49 223 0.0 0.0 0.00 0.00 0.00 68 1016.4
20260503004526 50 223 0.0 0.0 0.00 0.00 0.00 67 1016.3
20260503004102 50 223 0.0 0.0 0.00 0.00 0.00 66 1016.2
20260503003550 50 223 0.0 0.0 0.00 0.00 0.00 64 1016.2
20260503003026 51 223 0.0 0.0 0.00 0.00 0.00 64 1016.2
20260503002540 51 223 0.0 0.0 0.00 0.00 0.00 63 1016.1
20260503002021 51 223 0.0 0.0 0.00 0.00 0.00 63 1016.0
20260503001523 52 227 0.0 0.0 0.00 0.00 0.00 63 1016.0
20260503001022 52 226 0.0 0.0 0.00 0.00 0.00 61 1015.9
20260503000518 52 226 0.0 0.0 0.00 0.00 0.00 56 1015.8
20260503000014 53 227 0.0 0.0 0.00 0.00 0.00 54 1015.8
20260502235533 53 227 0.0 0.0 0.00 0.00 0.00 53 1015.7
20260502235029 53 227 0.0 0.0 0.00 0.00 0.00 52 1015.7
20260502234517 53 227 0.0 2.6 0.00 0.00 0.00 56 1015.7
20260502234014 53 227 0.0 2.6 0.00 0.00 0.00 52 1015.6
20260502233523 54 209 0.0 4.3 0.00 0.00 0.00 48 1015.7
20260502233019 54 102 0.0 4.3 0.00 0.00 0.00 47 1015.5
20260502232537 54 135 0.0 0.0 0.00 0.00 0.00 47 1015.5
20260502232026 54 135 0.0 0.9 0.00 0.00 0.00 46 1015.5
20260502231524 54 135 0.0 6.1 0.00 0.00 0.00 46 1015.5
20260502231031 54 132 0.0 6.1 0.00 0.00 0.00 46 1015.4
20260502230530 54 267 0.0 0.0 0.00 0.00 0.00 48 1015.4
20260502230017 55 267 0.0 6.1 0.00 0.00 0.00 44 1015.3
20260502225554 55 267 0.0 6.1 0.00 0.00 0.00 45 1015.3
20260502225051 55 296 0.9 5.2 0.00 0.00 0.00 45 1015.3
20260502224519 55 220 0.9 8.7 0.00 0.00 0.00 44 1015.2
20260502224027 55 252 0.9 4.3 0.00 0.00 0.00 45 1015.2
20260502223516 55 198 0.0 4.3 0.00 0.00 0.00 46 1015.2
20260502223033 55 291 0.9 6.1 0.00 0.00 0.00 48 1015.2
20260502222551 55 272 2.6 6.1 0.00 0.00 0.00 44 1015.2
20260502222018 55 198 0.9 6.1 0.00 0.00 0.00 46 1015.2
20260502221535 55 223 2.6 6.1 0.00 0.00 0.00 46 1015.2
20260502221034 55 234 284.2 284.2 0.00 0.00 0.00 44 1014.9
20260502220522 56 240 1.7 6.1 0.00 0.00 0.00 45 1015.1
20260502220019 56 254 3.5 5.2 0.00 0.00 0.00 46 1014.9
20260502215523 56 249 0.0 7.0 0.00 0.00 0.00 44 1015.0
20260502215021 56 254 0.9 7.0 0.00 0.00 0.00 43 1014.9
20260502214538 57 110 1.7 7.0 0.00 0.00 0.00 42 1014.8
20260502214026 57 302 1.7 6.1 0.00 0.00 0.00 46 1014.9
20260502213515 56 240 1.7 6.1 0.00 0.00 0.00 46 1014.9
20260502213014 56 268 0.0 7.0 0.00 0.00 0.00 46 1014.9
20260502212523 56 270 0.9 7.0 0.00 0.00 0.00 45 1014.9
20260502212041 56 251 2.6 7.0 0.00 0.00 0.00 45 1014.8
20260502211517 56 227 0.9 6.1 0.00 0.00 0.00 46 1014.8
20260502211025 57 168 0.9 6.1 0.00 0.00 0.00 43 1014.7
20260502210531 57 155 0.9 6.1 0.00 0.00 0.00 44 1014.8
20260502210020 57 88 1.7 6.1 0.00 0.00 0.00 42 1014.8
20260502205537 56 210 0.9 4.3 0.00 0.00 0.00 48 1014.8
20260502205026 56 259 0.9 5.2 0.00 0.00 0.00 47 1014.8
20260502204523 56 259 1.7 5.2 0.00 0.00 0.00 50 1014.8
20260502204031 55 266 2.6 7.8 0.00 0.00 0.00 46 1015.0
20260502203528 56 278 1.7 7.8 0.00 0.00 0.00 45 1014.9
20260502203016 56 159 0.0 5.2 0.00 0.00 0.00 45 1015.1
20260502202534 56 265 2.6 5.2 0.00 0.00 0.00 46 1015.0
20260502202024 57 185 284.2 284.2 0.00 0.00 0.00 51 1014.8
20260502201522 56 142 1.7 4.3 0.00 0.00 0.00 46 1015.1
20260502201029 56 107 1.7 5.2 0.00 0.00 0.00 48 1015.1
20260502200528 55 259 0.0 4.3 0.00 0.00 0.00 50 1015.2
20260502200015 55 193 0.0 3.5 0.00 0.00 0.00 51 1015.2
20260502195534 55 175 0.0 3.5 0.00 0.00 0.00 50 1015.3
20260502195042 55 128 0.0 0.0 0.00 0.00 0.00 51 1015.3
20260502194518 55 128 0.0 2.6 0.00 0.00 0.00 47 1015.3
20260502194035 55 128 0.0 2.6 0.00 0.00 0.00 47 1015.3
20260502193548 56 195 0.0 2.6 0.00 0.00 0.00 48 1015.3
20260502193037 56 140 0.0 4.3 0.00 0.00 0.00 46 1015.4
20260502192555 55 146 1.7 5.2 0.00 0.00 0.00 47 1015.4
20260502192044 56 126 0.9 5.2 0.00 0.00 0.00 47 1015.5
20260502191542 56 282 0.0 2.6 0.00 0.00 0.00 47 1015.6
20260502191050 56 236 0.0 2.6 0.00 0.00 0.00 45 1015.5
20260502190528 56 337 0.0 5.2 0.00 0.00 0.00 45 1015.6
20260502190035 57 297 1.7 7.0 0.00 0.00 0.00 46 1015.6
20260502185532 57 290 3.5 7.0 0.00 0.00 0.00 45 1015.6
20260502185052 56 304 3.5 7.0 0.00 0.00 0.00 48 1015.8
20260502184527 55 283 0.9 5.2 0.00 0.00 0.00 47 1015.9
20260502184106 55 247 0.0 7.0 0.00 0.00 0.00 48 1015.9
20260502183534 55 310 2.6 8.7 0.00 0.00 0.00 46 1016.0
20260502182538 55 273 3.5 8.7 0.00 0.00 0.00 44 1015.9
20260502182036 56 262 0.9 5.2 0.00 0.00 0.00 46 1016.0
20260502181554 55 229 0.0 5.2 0.00 0.00 0.00 48 1016.0
20260502181042 55 204 0.9 3.5 0.00 0.00 0.00 50 1016.0
20260502180530 55 144 0.0 4.3 0.00 0.00 0.00 48 1016.1
20260502164039 57 302 1.7 12.2 0.00 0.00 0.00 53 1016.5
20260502163538 56 122 0.9 12.2 0.00 0.00 0.00 47 1016.4
20260502163045 56 254 3.5 9.6 0.00 0.00 0.00 54 1016.5
20260502162542 56 276 2.6 9.6 0.00 0.00 0.00 46 1016.6
20260502161531 55 317 5.2 8.7 0.00 0.00 0.00 46 1016.6
20260502161050 56 17 0.9 7.0 0.00 0.00 0.00 50 1016.7
20260502160527 57 284 2.6 7.8 0.00 0.00 0.00 54 1016.7
20260502160117 56 174 0.0 7.8 0.00 0.00 0.00 50 1016.7
20260502151532 55 71 1.7 7.0 0.00 0.00 0.00 52 1017.1
20260502151049 55 104 0.9 7.0 0.00 0.00 0.00 57 1017.0
20260502150558 54 167 0.0 4.3 0.00 0.00 0.00 54 1016.9
20260502123526 39 126 0.0 0.0 0.00 0.00 0.00 96 1017.3
20260502123024 39 126 0.0 0.0 0.00 0.00 0.00 96 1017.2
20260502122528 39 126 0.0 0.0 0.00 0.00 0.00 96 1017.1
20260502122026 39 126 0.0 0.0 0.00 0.00 0.00 96 1017.1
20260502121604 39 126 0.0 0.0 0.00 0.00 0.00 96 1017.2
20260502121140 38 126 0.0 0.0 0.00 0.00 0.00 96 1017.1
20260502120551 38 126 0.0 0.0 0.00 0.00 0.00 96 1017.1
20260502120109 38 126 0.0 0.0 0.00 0.00 0.00 96 1017.1
20260502115537 38 126 0.0 0.0 0.00 0.00 0.00 96 1017.1
20260502115026 38 126 0.0 0.0 0.00 0.00 0.00 96 1016.9
20260502114031 38 126 0.0 0.0 0.00 0.00 0.00 96 1016.9
20260502113529 38 126 0.0 0.0 0.00 0.00 0.00 96 1016.9
20260502113106 37 126 0.0 0.0 0.00 0.00 0.00 96 1016.8
20260502112532 37 126 0.0 0.0 0.00 0.00 0.00 96 1016.9
20260502112028 37 126 0.0 0.0 0.00 0.00 0.00 96 1016.9
20260502111605 37 126 0.0 0.0 0.00 0.00 0.00 96 1016.8
20260502111032 37 126 0.0 0.0 0.00 0.00 0.00 96 1016.8
20260502110605 37 126 0.0 0.0 0.00 0.00 0.00 96 1016.7
20260502105559 37 126 0.0 0.0 0.00 0.00 0.00 96 1016.7
20260502105046 37 126 0.0 0.0 0.00 0.00 0.00 95 1016.5
20260502104542 37 126 0.0 0.0 0.00 0.00 0.00 95 1016.6
20260502104041 37 126 0.0 0.0 0.00 0.00 0.00 95 1016.7
20260502103536 37 126 0.0 0.0 0.00 0.00 0.00 95 1016.6
20260502103052 37 126 0.0 0.0 0.00 0.00 0.00 96 1016.5
20260502102528 37 126 0.0 0.0 0.00 0.00 0.00 96 1016.5
20260502102036 37 126 0.0 0.0 0.00 0.00 0.00 96 1016.6
20260502091028 38 126 0.0 0.0 0.00 0.00 0.00 95 1017.0
20260502064546 38 126 0.0 0.0 0.00 0.00 0.00 95 1016.7
20260502062030 37 126 0.0 0.0 0.00 0.00 0.00 94 1016.7
20260502060538 38 126 0.0 0.0 0.00 0.00 0.00 94 1017.0
20260502054528 38 126 0.0 0.0 0.00 0.00 0.00 94 1017.1
20260502053038 37 126 0.0 0.0 0.00 0.00 0.00 93 1017.2
20260502051540 38 126 0.0 0.0 0.00 0.00 0.00 92 1017.2
20260502051028 38 126 0.0 0.0 0.00 0.00 0.00 92 1017.2
20260502050524 38 126 0.0 0.0 0.00 0.00 0.00 93 1017.3
20260502050033 38 126 0.0 0.0 0.00 0.00 0.00 93 1017.3
20260502035030 41 126 0.0 0.0 0.00 0.00 0.00 91 1017.3
20260502031534 44 126 0.0 0.0 0.00 0.00 0.00 87 1017.1
20260502024527 46 126 0.0 0.0 0.00 0.00 0.00 85 1017.1
20260502024023 46 126 0.0 0.0 0.00 0.00 0.00 84 1017.2
20260502021049 48 126 0.0 0.0 0.00 0.00 0.00 79 1016.9